Data for 07/19/2017

Time Sea-Level Adjusted Pressure Absolute Pressure Temperature Relative Humidity Dew Point   
(mb) (inHg) (mb) (inHg) (C) (F) (%) (C) (F)
00:05 1018 30.06 847 25.01 18.3 65 38 3.9 39.1
00:10 1018 30.06 847 25.01 18.4 65 38 4 39.3
00:15 1018 30.06 847 25.01 18.6 65.4 35 2.9 37.2
00:20 1018 30.06 847 25.01 19.2 66.5 33 2.8 37
00:25 1018 30.06 847 25.01 20 68.1 30 2 35.5
00:30 1018 30.06 847 25.01 20.8 69.5 29 2.5 36.6
00:35 1018 30.06 847 25.01 20.8 69.4 33 4.2 39.5
00:40 1018 30.06 847 25.01 19.1 66.4 36 3.7 38.7
00:45 1018 30.06 847 25.01 19 66.2 35 3.3 38
00:50 1018 30.06 847 25.01 18.7 65.6 37 3.7 38.7
00:55 1018 30.06 848 25.04 18 64.4 38 3.8 38.8
01:00 1019 30.09 848 25.04 18 64.4 34 1.9 35.5
01:05 1019 30.09 848 25.04 18.8 65.9 33 2.4 36.3
01:10 1019 30.09 848 25.04 18.9 66 38 4.6 40.2
01:15 1019 30.09 848 25.04 17.9 64.1 41 4.4 39.9
01:20 1019 30.09 848 25.04 17.2 63 41 4.1 39.4
01:25 1019 30.09 848 25.04 16.9 62.5 41 3.8 38.8
01:30 1019 30.09 848 25.04 16.4 61.6 43 4 39.3
01:35 1019 30.09 848 25.04 16 60.7 44 3.8 38.9
01:40 1019 30.09 848 25.04 16.4 61.5 40 2.8 37
01:45 1019 30.09 849 25.07 17 62.5 38 2.8 37
01:50 1019 30.09 849 25.07 17.2 63 37 2.7 36.9
01:55 1020 30.12 849 25.07 17.5 63.5 36 2.4 36.3
02:00 1020 30.12 849 25.07 17.7 63.8 35 2.2 36
02:05 1020 30.12 849 25.07 17.6 63.7 35 2 35.6
02:10 1020 30.12 849 25.07 17.7 63.9 35 2.3 36.1
02:15 1020 30.12 849 25.07 17.6 63.6 36 2.5 36.4
02:20 1020 30.12 849 25.07 17.3 63.1 37 2.5 36.6
02:25 1020 30.12 849 25.07 17 62.6 38 2.7 36.9
02:30 1020 30.12 849 25.07 16.8 62.2 38 2.5 36.5
02:35 1020 30.12 849 25.07 16.8 62.2 39 2.7 36.9
02:40 1020 30.12 849 25.07 16.7 62 38 2.5 36.5
02:45 1020 30.12 850 25.1 16.8 62.2 38 2.4 36.3
02:50 1021 30.15 850 25.1 17 62.5 36 1.7 35.1
02:55 1021 30.15 850 25.1 17.5 63.5 34 1.4 34.6
03:00 1021 30.15 850 25.1 17.8 64 34 1.8 35.2
03:05 1021 30.15 850 25.1 17.8 64.1 33 1.6 34.8
03:10 1021 30.15 850 25.1 18 64.3 34 1.8 35.3
03:15 1021 30.15 850 25.1 17.8 64 35 2.1 35.8
03:20 1021 30.15 850 25.1 17.6 63.7 34 1.8 35.2
03:25 1021 30.15 850 25.1 17.8 64 34 1.9 35.4
03:30 1021 30.15 850 25.1 17.8 64.1 34 1.8 35.2
03:35 1021 30.15 851 25.13 17.8 64.1 34 2.1 35.7
03:40 1021 30.15 851 25.13 17.7 63.8 35 2.2 35.9
03:45 1021 30.15 851 25.13 17.7 63.9 35 2.3 36.1
03:50 1021 30.15 851 25.13 17.5 63.5 36 2.5 36.6
03:55 1022 30.18 851 25.13 17.1 62.8 38 3 37.3
04:00 1022 30.18 851 25.13 16.7 62.1 40 3.3 37.9
04:05 1022 30.18 851 25.13 16.3 61.4 41 3.2 37.8
04:10 1022 30.18 851 25.13 16.4 61.5 40 3 37.4
04:15 1022 30.18 851 25.13 16.5 61.7 40 3 37.4
04:20 1022 30.18 851 25.13 16.6 61.8 40 3 37.3
04:25 1022 30.18 851 25.13 16.4 61.6 41 3.3 37.9
04:30 1022 30.18 851 25.13 16 60.9 42 3.4 38.1
04:35 1022 30.18 851 25.13 15.7 60.2 45 3.9 39
04:40 1022 30.18 851 25.13 15.1 59.2 47 4 39.3
04:45 1022 30.18 851 25.13 14.5 58.1 49 4 39.2
04:50 1022 30.18 851 25.13 14.4 58 48 3.8 38.8
04:55 1022 30.18 851 25.13 14.4 57.9 47 3.5 38.3
05:00 1022 30.18 851 25.13 14.7 58.4 46 3.3 37.9
05:05 1022 30.18 851 25.13 14.9 58.8 46 3.4 38.1
05:10 1022 30.18 851 25.13 14.7 58.5 47 3.7 38.6
05:15 1022 30.18 851 25.13 14.4 58 49 3.8 38.9
05:20 1022 30.18 851 25.13 14.1 57.3 50 3.9 39
05:25 1022 30.18 851 25.13 14 57.2 49 3.6 38.4
05:30 1022 30.18 851 25.13 14.2 57.5 49 3.6 38.5
05:35 1022 30.18 851 25.13 14.2 57.5 49 3.8 38.8
05:40 1022 30.18 851 25.13 14.1 57.4 49 3.6 38.5
05:45 1022 30.18 851 25.13 14.3 57.7 48 3.5 38.3
05:50 1022 30.18 852 25.16 14.4 57.9 47 3.4 38.2
05:55 1022 30.18 851 25.13 14.7 58.5 47 3.5 38.4
06:00 1022 30.18 852 25.16 14.7 58.5 47 3.7 38.6
06:05 1022 30.18 852 25.16 14.7 58.4 48 3.9 39
06:10 1023 30.21 852 25.16 14.7 58.5 47 3.7 38.6
06:15 1023 30.21 852 25.16 15 59 47 3.8 38.8
06:20 1023 30.21 852 25.16 15.1 59.3 46 3.8 38.8
06:25 1023 30.21 852 25.16 15.3 59.6 47 4.1 39.4
06:30 1023 30.21 852 25.16 15.7 60.2 46 4.2 39.5
06:35 1023 30.21 852 25.16 15.7 60.2 48 4.7 40.5
06:40 1023 30.21 852 25.16 15.6 60.2 47 4.4 39.9
06:45 1023 30.21 852 25.16 15.9 60.5 47 4.5 40.2
06:50 1023 30.21 852 25.16 16.4 61.5 45 4.5 40.2
06:55 1023 30.21 852 25.16 16.8 62.3 44 4.6 40.3
07:00 1023 30.21 852 25.16 17.1 62.9 44 4.8 40.7
07:05 1023 30.21 853 25.19 17.2 62.9 45 5.1 41.2
07:10 1023 30.21 853 25.19 17.7 63.8 45 5.8 42.4
07:15 1023 30.21 852 25.16 18.1 64.6 40 4.4 40
07:20 1023 30.21 853 25.19 18.2 64.8 41 4.9 40.8
07:25 1023 30.21 852 25.16 18.4 65.2 41 5.2 41.4
07:30 1023 30.21 852 25.16 18.9 66 43 6.2 43.2
07:35 1023 30.21 853 25.19 19.1 66.3 38 4.6 40.3
07:40 1023 30.21 852 25.16 18.8 65.9 39 4.9 40.8
07:45 1023 30.21 852 25.16 19.3 66.7 38 4.7 40.5
07:50 1023 30.21 852 25.16 19.3 66.8 36 3.9 39.1
07:55 1023 30.21 852 25.16 19.7 67.5 35 3.8 38.8
08:00 1023 30.21 852 25.16 20.1 68.2 34 4.1 39.3
08:05 1023 30.21 852 25.16 20 68.1 34 3.8 38.9
08:10 1023 30.21 852 25.16 20.3 68.5 36 4.9 40.8
08:15 1023 30.21 852 25.16 20.4 68.8 32 3.2 37.7
08:20 1023 30.21 852 25.16 20.4 68.8 33 3.8 38.9
08:25 1023 30.21 852 25.16 20.7 69.2 32 3.5 38.3
08:30 1023 30.21 852 25.16 21.2 70.1 30 3.1 37.7
08:35 1023 30.21 852 25.16 21.3 70.4 32 4.2 39.6
08:40 1023 30.21 852 25.16 22 71.6 29 3.4 38.1
08:45 1023 30.21 852 25.16 22.1 71.8 29 3.3 38
08:50 1023 30.21 852 25.16 22.2 71.9 29 3.6 38.4
08:55 1023 30.21 852 25.16 22 71.6 27 2.4 36.4
09:00 1023 30.21 852 25.16 22.3 72.1 29 3.6 38.5
09:05 1023 30.21 852 25.16 22.8 73.1 25 2.2 36
09:10 1023 30.21 852 25.16 22.8 73.1 26 2.5 36.5
09:15 1023 30.21 852 25.16 22.9 73.2 27 2.9 37.2
09:20 1023 30.21 852 25.16 23.4 74 26 3.1 37.5
09:25 1023 30.21 852 25.16 23.2 73.7 25 2.4 36.3
09:30 1023 30.21 852 25.16 23.4 74.1 25 2.7 36.8
09:35 1023 30.21 852 25.16 23 73.4 26 2.9 37.2
09:40 1023 30.21 852 25.16 23.4 74.2 25 2.8 37
09:45 1023 30.21 852 25.16 23.9 75 25 3.2 37.7
09:50 1023 30.21 852 25.16 23.5 74.3 26 3 37.4
09:55 1022 30.18 852 25.16 23.6 74.5 26 3.1 37.6
10:00 1022 30.18 852 25.16 24.1 75.3 24 2.5 36.5
10:05 1022 30.18 852 25.16 24.8 76.6 25 3.5 38.4
10:10 1022 30.18 852 25.16 24.8 76.6 24 2.9 37.3
10:15 1022 30.18 852 25.16 24.9 76.8 23 2.5 36.5
10:20 1022 30.18 852 25.16 25 76.9 22 2.2 35.9
10:25 1022 30.18 852 25.16 25.7 78.2 23 3 37.5
10:30 1022 30.18 852 25.16 26.4 79.4 20 2 35.5
10:35 1022 30.18 851 25.13 26.7 80.1 21 2.6 36.7
10:40 1022 30.18 851 25.13 27 80.7 20 2.7 36.8
10:45 1022 30.18 851 25.13 27 80.6 20 2.7 36.8
10:50 1022 30.18 851 25.13 26.8 80.2 19 1.8 35.2
10:55 1022 30.18 851 25.13 27.2 80.9 20 2.6 36.8
11:00 1022 30.18 851 25.13 26.6 79.9 20 2.2 35.9
11:05 1022 30.18 851 25.13 27.6 81.7 20 3.1 37.6
11:10 1022 30.18 851 25.13 27.1 80.8 22 3.8 38.8
11:15 1022 30.18 851 25.13 27.1 80.8 21 3.5 38.3
11:20 1022 30.18 851 25.13 27.9 82.3 19 2.8 37.1
11:25 1022 30.18 851 25.13 28.2 82.7 18 1.9 35.5
11:30 1022 30.18 851 25.13 27.8 82 19 2 35.6
11:35 1022 30.18 851 25.13 28.2 82.7 19 2.3 36.2
11:40 1022 30.18 851 25.13 28.4 83 19 2.5 36.5
11:45 1022 30.18 851 25.13 28.4 83.1 18 2 35.6
11:50 1022 30.18 851 25.13 28.3 82.9 17 1.5 34.8
11:55 1022 30.18 851 25.13 27.5 81.6 19 2 35.6
12:00 1021 30.15 851 25.13 27.4 81.3 19 1.7 35.1
12:05 1021 30.15 851 25.13 28.4 83.1 18 2.2 35.9
12:10 1021 30.15 851 25.13 28.8 83.8 18 2.3 36.2
12:15 1021 30.15 851 25.13 29 84.2 17 2.1 35.7
12:20 1021 30.15 851 25.13 29 84.2 17 1.8 35.3
12:25 1021 30.15 850 25.1 29.1 84.4 17 2.3 36.2
12:30 1021 30.15 850 25.1 29.5 85.1 17 2.1 35.7
12:35 1021 30.15 850 25.1 29.6 85.3 18 2.7 36.9
12:40 1021 30.15 850 25.1 29.3 84.8 17 2 35.6
12:45 1021 30.15 850 25.1 29.4 84.9 17 2.1 35.9
12:50 1021 30.15 850 25.1 29.5 85 18 3 37.4
12:55 1021 30.15 850 25.1 29.4 84.9 17 2.2 35.9
13:00 1021 30.15 850 25.1 29.9 85.8 18 3.3 37.9
13:05 1021 30.15 850 25.1 29.8 85.6 17 2.2 36
13:10 1021 30.15 850 25.1 29.2 84.6 15 0.7 33.3
13:15 1021 30.15 850 25.1 29.2 84.6 15 0.5 32.8
13:20 1021 30.15 850 25.1 28.7 83.7 15 -0.4 31.3
13:25 1020 30.12 850 25.1 29.5 85 15 0.4 32.7
13:30 1020 30.12 850 25.1 29.4 85 16 1 33.7
13:35 1020 30.12 850 25.1 29.1 84.5 16 0.7 33.3
13:40 1020 30.12 850 25.1 29.4 85 15 0.5 32.9
13:45 1020 30.12 850 25.1 29.9 85.7 14 0.1 32.1
13:50 1020 30.12 850 25.1 30.4 86.6 14 0.5 32.9
13:55 1020 30.12 849 25.07 30.3 86.5 15 0.7 33.3
14:00 1020 30.12 849 25.07 30.3 86.5 14 0.5 33
14:05 1020 30.12 849 25.07 30.1 86.2 15 1 33.9
14:10 1020 30.12 849 25.07 30.1 86.2 14 0.4 32.7
14:15 1020 30.12 849 25.07 30.8 87.4 13 0 32.1
14:20 1020 30.12 849 25.07 30.3 86.6 14 0.6 33.1
14:25 1020 30.12 849 25.07 30.6 87.2 14 0.9 33.6
14:30 1020 30.12 849 25.07 30.6 87.1 14 -0 32
14:35 1020 30.12 849 25.07 31 87.8 13 -0.2 31.6
14:40 1020 30.12 849 25.07 30.5 86.8 13 -1.1 30.1
14:45 1020 30.12 849 25.07 29.9 85.9 13 -1.6 29.2
14:50 1020 30.12 849 25.07 30.3 86.6 13 -1.2 29.8
14:55 1020 30.12 849 25.07 31.2 88.2 13 -0.3 31.4
15:00 1020 30.12 849 25.07 31.5 88.7 12 -0.6 30.9
15:05 1020 30.12 849 25.07 32 89.6 12 -0.4 31.2
15:10 1020 30.12 849 25.07 32 89.5 12 -0.7 30.8
15:15 1020 30.12 849 25.07 31.7 89 12 -1.1 30
15:20 1019 30.09 849 25.07 31.8 89.2 13 0.1 32.1
15:25 1019 30.09 849 25.07 32.1 89.7 12 -0.2 31.7
15:30 1019 30.09 849 25.07 32.5 90.5 11 -1.3 29.6
15:35 1019 30.09 848 25.04 31.6 88.9 12 -0.8 30.6
15:40 1019 30.09 848 25.04 31.3 88.3 12 -1.1 30.1
15:45 1019 30.09 848 25.04 30.7 87.3 12 -1.3 29.7
15:50 1019 30.09 848 25.04 31.4 88.5 12 -0.9 30.3
15:55 1019 30.09 848 25.04 31.6 88.8 11 -2 28.4
16:00 1019 30.09 848 25.04 31.5 88.7 12 -0.5 31.1
16:05 1019 30.09 848 25.04 31.3 88.4 12 -0.8 30.5
16:10 1019 30.09 848 25.04 31.5 88.6 12 -0.8 30.6
16:15 1019 30.09 848 25.04 31.2 88.2 12 -0.8 30.6
16:20 1019 30.09 848 25.04 31.4 88.5 12 -1.1 30.1
16:25 1019 30.09 848 25.04 31.8 89.3 12 -1.1 30
16:30 1019 30.09 848 25.04 31.4 88.6 12 -1.1 30
16:35 1019 30.09 848 25.04 30.8 87.5 12 -1.1 30
16:40 1019 30.09 848 25.04 31.6 88.8 11 -1.9 28.5
16:45 1018 30.06 848 25.04 31.8 89.2 12 -1 30.2
16:50 1018 30.06 848 25.04 31 87.8 11 -2 28.3
16:55 1018 30.06 848 25.04 30.7 87.3 12 -1.6 29.1
17:00 1018 30.06 848 25.04 31.1 88 11 -2 28.3
17:05 1018 30.06 848 25.04 30.6 87.1 12 -2.1 28.2
17:10 1018 30.06 848 25.04 30.7 87.2 11 -2.7 27.1
17:15 1018 30.06 847 25.01 30.2 86.4 12 -1.9 28.6
17:20 1018 30.06 847 25.01 30.4 86.7 12 -1.8 28.7
17:25 1018 30.06 847 25.01 31.2 88.1 11 -1.8 28.7
17:30 1018 30.06 847 25.01 31.4 88.5 11 -2 28.5
17:35 1018 30.06 847 25.01 31.3 88.3 12 -1.7 29
17:40 1018 30.06 847 25.01 31.3 88.4 11 -2.3 27.8
17:45 1018 30.06 847 25.01 31.1 88.1 12 -1.5 29.3
17:50 1018 30.06 847 25.01 31 87.8 11 -2.1 28.2
17:55 1018 30.06 847 25.01 31.3 88.3 11 -2.7 27.2
18:00 1018 30.06 847 25.01 31.2 88.1 11 -2.7 27.1
18:05 1018 30.06 847 25.01 31.2 88.1 11 -1.9 28.6
18:10 1018 30.06 847 25.01 31.2 88.2 11 -2.5 27.6
18:15 1018 30.06 847 25.01 30.5 86.9 11 -3 26.6
18:20 1018 30.06 847 25.01 30 85.9 11 -2.9 26.8
18:25 1018 30.06 847 25.01 29.7 85.5 12 -2.7 27.2
18:30 1018 30.06 847 25.01 29.6 85.2 12 -2.7 27.1
18:35 1018 30.06 847 25.01 29.6 85.2 12 -2.5 27.4
18:40 1018 30.06 847 25.01 29.6 85.3 12 -2.1 28.3
18:45 1018 30.06 847 25.01 29.6 85.2 12 -2.4 27.6
18:50 1018 30.06 847 25.01 29.6 85.3 12 -2.1 28.2
18:55 1018 30.06 847 25.01 29.5 85.1 12 -2.8 26.9
19:00 1018 30.06 847 25.01 29.4 85 13 -1.4 29.4
19:05 1018 30.06 847 25.01 29.3 84.8 13 -1.6 29.1
19:10 1018 30.06 847 25.01 29.2 84.6 14 -0.8 30.6
19:15 1018 30.06 847 25.01 29 84.2 13 -2 28.5
19:20 1018 30.06 847 25.01 28.7 83.7 14 -1.2 29.8
19:25 1018 30.06 847 25.01 28.3 82.9 14 -1.2 29.8
19:30 1018 30.06 847 25.01 28 82.3 15 -0.4 31.3
19:35 1018 30.06 847 25.01 27.8 82.1 15 -0.6 30.9
19:40 1018 30.06 847 25.01 27.7 81.8 21 3.9 39
19:45 1018 30.06 847 25.01 26.8 80.3 21 3.2 37.8
19:50 1018 30.06 847 25.01 26.4 79.6 24 4.5 40.2
19:55 1018 30.06 847 25.01 26 78.8 24 4.2 39.6
20:00 1018 30.06 847 25.01 25.8 78.5 22 2.5 36.5
20:05 1018 30.06 847 25.01 25.7 78.3 23 3.2 37.8
20:10 1018 30.06 847 25.01 25.5 77.9 22 2.2 36
20:15 1018 30.06 847 25.01 25.4 77.7 22 2.2 36
20:20 1018 30.06 847 25.01 25.2 77.3 22 2.4 36.4
20:25 1018 30.06 847 25.01 24.9 76.8 22 2.3 36.1
20:30 1018 30.06 847 25.01 24.7 76.5 23 2.5 36.4
20:35 1018 30.06 847 25.01 24.7 76.4 23 2.1 35.8
20:40 1018 30.06 847 25.01 24.8 76.6 23 2.3 36.1
20:45 1018 30.06 847 25.01 24.8 76.6 22 2.2 35.9
20:50 1018 30.06 848 25.04 24.8 76.6 23 2.2 36
20:55 1018 30.06 848 25.04 24.6 76.3 23 2.2 36
21:00 1018 30.06 848 25.04 24.5 76.1 23 2.1 35.8
21:05 1018 30.06 848 25.04 24.4 76 23 2 35.6
21:10 1018 30.06 848 25.04 24.6 76.3 22 1.8 35.2
21:15 1018 30.06 848 25.04 24.7 76.5 22 2.1 35.8
21:20 1018 30.06 848 25.04 24.2 75.5 28 4.7 40.5
21:25 1018 30.06 848 25.04 22.7 72.8 31 4.7 40.5
21:30 1018 30.06 848 25.04 22.1 71.7 29 3.6 38.5
21:35 1018 30.06 848 25.04 21.9 71.4 28 2.6 36.7
21:40 1018 30.06 848 25.04 22.3 72.1 27 2.7 36.9
21:45 1018 30.06 848 25.04 22.4 72.4 28 3 37.4
21:50 1018 30.06 848 25.04 22.1 71.7 29 3.3 38
21:55 1018 30.06 847 25.01 21.9 71.4 28 2.7 36.8
22:00 1018 30.06 847 25.01 22.4 72.3 25 1.7 35.1
22:05 1018 30.06 847 25.01 23.2 73.8 25 2.4 36.4
22:10 1018 30.06 847 25.01 23.1 73.5 26 2.6 36.6
22:15 1018 30.06 847 25.01 23.1 73.6 25 2 35.7
22:20 1018 30.06 847 25.01 23.5 74.3 25 2.3 36.1
22:25 1018 30.06 847 25.01 23.3 74 25 2.3 36.1
22:30 1018 30.06 847 25.01 23.1 73.6 25 2.2 35.9
22:35 1018 30.06 847 25.01 23.2 73.8 24 2 35.5
22:40 1018 30.06 847 25.01 23.7 74.6 23 1.4 34.6
22:45 1018 30.06 847 25.01 24.3 75.8 22 1.6 34.9
22:50 1018 30.06 847 25.01 24.5 76 23 1.9 35.5
22:55 1018 30.06 847 25.01 24.3 75.8 23 1.9 35.5
23:00 1018 30.06 847 25.01 24.3 75.8 23 2 35.6
23:05 1018 30.06 847 25.01 24.3 75.8 23 2.3 36.1
23:10 1018 30.06 847 25.01 24.1 75.4 24 2.4 36.3
23:15 1018 30.06 847 25.01 24 75.3 24 2.4 36.3
23:20 1018 30.06 847 25.01 23.9 74.9 24 2.4 36.4
23:25 1018 30.06 847 25.01 23.7 74.7 24 2.5 36.5
23:30 1018 30.06 847 25.01 23.5 74.4 25 2.3 36.2
23:35 1018 30.06 847 25.01 23.4 74.1 25 2.4 36.2
23:40 1018 30.06 847 25.01 23.1 73.6 25 2.4 36.4
23:45 1018 30.06 847 25.01 22.9 73.1 26 2.5 36.4
23:50 1018 30.06 847 25.01 22.7 72.9 26 2.4 36.4
23:55 1018 30.06 847 25.01 22.7 72.9 26 2.3 36.2
24:00 1018 30.06 847 25.01 23.1 73.6 25 2.5 36.5